QPF
0.00 0.00 0.00 0.00 0.00 0.00 0.00 0.01 0.02 0.01 0.00 0.00 0.00 0.00 0.00 0.00 0.00 0.00 0.00 0.00 0.00 0.00 0.00 0.00 0.00 0.00 0.00 0.00 0.00 0.00 0.00 0.00 0.00 0.00 0.00 0.00 0.00 0.00 0.00 0.00 0.01 0.00 0.00
0.00 0.00 0.00 0.00 0.00 0.00 0.01 0.01 0.01 0.00 0.00 0.00 0.00 0.00 0.00 0.00 0.01 0.00 0.00 0.00 0.00 0.00 0.00 0.00 0.00 0.00 0.00 0.00 0.00 0.00 0.00 0.00 0.00 0.00 0.00 0.00 0.00 0.00 0.00 0.00 0.00 0.00 0.00
0.00 0.00 0.00 0.00 0.00 0.00 0.01 0.00 0.00 0.00 0.00 0.00 0.00 0.00 0.00 0.01 0.00 0.00 0.00 0.00 0.00 0.00 0.00 0.00 0.00 0.00 0.00 0.00 0.00 0.00 0.00 0.00 0.00 0.00 0.00 0.00 0.01 0.02 0.00 0.00 0.01 0.02 0.01
0.00 0.00 0.00 0.00 0.00 0.01 0.01 0.00 0.00 0.00 0.00 0.00 0.00 0.00 0.00 0.01 0.00 0.00 0.00 0.00 0.00 0.00 0.00 0.00 0.00 0.00 0.00 0.00 0.00 0.00 0.00 0.00 0.00 0.00 0.00 0.00 0.00 0.01 0.01 0.02 0.04 0.03 0.01
0.00 0.00 0.00 0.00 0.00 0.00 0.00 0.00 0.00 0.00 0.00 0.00 0.00 0.00 0.01 0.01 0.00 0.00 0.00 0.00 0.00 0.00 0.00 0.00 0.00 0.00 0.00 0.00 0.00 0.00 0.00 0.00 0.00 0.00 0.00 0.00 0.00 0.00 0.00 0.00 0.00 0.00 0.00
0.00 0.00 0.00 0.01 0.01 0.00 0.00 0.00 0.00 0.00 0.00 0.00 0.00 0.00 0.01 0.02 0.01 0.00 0.00 0.00 0.00 0.00 0.00 0.00 0.00 0.00 0.00 0.00 0.00 0.00 0.00 0.00 0.00 0.00 0.00 0.00 0.00 0.00 0.00 0.00 0.00 0.00 0.00
0.00 0.00 0.00 0.01 0.01 0.00 0.00 0.00 0.00 0.00 0.00 0.00 0.00 0.00 0.00 0.02 0.01 0.00 0.00 0.00 0.00 0.00 0.00 0.00 0.00 0.00 0.00 0.00 0.00 0.00 0.00 0.00 0.00 0.00 0.00 0.00 0.00 0.00 0.00 0.00 0.00 0.00 0.00
0.00 0.00 0.00 0.01 0.01 0.00 0.00 0.00 0.00 0.00 0.00 0.00 0.00 0.00 0.00 0.02 0.01 0.00 0.00 0.00 0.00 0.00 0.00 0.00 0.00 0.00 0.00 0.00 0.00 0.00 0.00 0.00 0.00 0.00 0.00 0.00 0.00 0.00 0.00 0.00 0.00 0.00 0.00
0.00 0.00 0.00 0.01 0.00 0.00 0.00 0.00 0.00 0.00 0.00 0.00 0.00 0.01 0.01 0.01 0.00 0.00 0.00 0.00 0.00 0.00 0.00 0.00 0.00 0.00 0.00 0.00 0.00 0.00 0.00 0.00 0.00 0.00 0.00 0.00 0.00 0.00 0.00 0.00 0.00 0.00 0.00
0.00 0.00 0.01 0.01 0.00 0.00 0.00 0.00 0.00 0.00 0.00 0.00 0.00 0.00 0.00 0.00 0.00 0.00 0.00 0.00 0.00 0.00 0.00 0.00 0.00 0.00 0.00 0.00 0.00 0.00 0.00 0.00 0.00 0.00 0.00 0.00 0.00 0.00 0.00 0.00 0.00 0.00 0.00
0.00 0.01 0.01 0.00 0.00 0.00 0.00 0.00 0.00 0.00 0.00 0.00 0.00 0.00 0.00 0.00 0.00 0.00 0.00 0.00 0.00 0.00 0.00 0.00 0.00 0.00 0.00 0.00 0.00 0.00 0.00 0.00 0.00 0.00 0.00 0.00 0.00 0.00 0.00 0.00 0.00 0.00 0.00
0.01 0.01 0.01 0.01 0.00 0.00 0.00 0.00 0.00 0.00 0.00 0.00 0.00 0.00 0.00 0.00 0.00 0.00 0.00 0.00 0.00 0.00 0.00 0.00 0.00 0.00 0.00 0.00 0.00 0.00 0.00 0.00 0.00 0.00 0.00 0.00 0.00 0.00 0.00 0.00 0.00 0.00 0.00
0.01 0.00 0.01 0.01 0.01 0.00 0.00 0.00 0.00 0.00 0.00 0.00 0.00 0.00 0.00 0.00 0.00 0.00 0.00 0.00 0.00 0.00 0.00 0.00 0.00 0.00 0.00 0.00 0.00 0.00 0.00 0.00 0.00 0.00 0.00 0.00 0.00 0.00 0.00 0.00 0.00 0.00 0.00
0.03 0.00 0.00 0.00 0.01 0.00 0.00 0.00 0.00 0.00 0.00 0.00 0.00 0.00 0.00 0.00 0.00 0.00 0.00 0.00 0.00 0.00 0.00 0.00 0.00 0.00 0.00 0.00 0.00 0.00 0.00 0.00 0.00 0.00 0.00 0.00 0.00 0.00 0.00 0.00 0.00 0.00 0.00
0.02 0.00 0.00 0.00 0.01 0.00 0.00 0.00 0.00 0.00 0.00 0.00 0.00 0.00 0.00 0.00 0.00 0.00 0.00 0.00 0.00 0.00 0.00 0.00 0.00 0.00 0.00 0.00 0.00 0.00 0.00 0.00 0.00 0.00 0.00 0.00 0.00 0.00 0.00 0.00 0.00 0.00 0.00
0.00 0.01 0.02 0.00 0.00 0.00 0.00 0.00 0.00 0.00 0.00 0.00 0.00 0.00 0.00 0.00 0.00 0.00 0.00 0.00 0.00 0.00 0.00 0.00 0.00 0.00 0.00 0.00 0.00 0.00 0.00 0.00 0.00 0.00 0.00 0.00 0.00 0.00 0.00 0.00 0.00 0.00 0.00
0.00 0.02 0.03 0.02 0.00 0.01 0.01 0.00 0.00 0.00 0.00 0.00 0.00 0.00 0.00 0.00 0.00 0.00 0.00 0.00 0.00 0.00 0.00 0.00 0.00 0.00 0.00 0.00 0.00 0.00 0.00 0.00 0.00 0.00 0.00 0.00 0.00 0.00 0.00 0.00 0.00 0.00 0.00
0.00 0.00 0.00 0.00 0.00 0.00 0.00 0.00 0.00 0.00 0.00 0.00 0.00 0.00 0.00 0.00 0.00 0.00 0.00 0.00 0.00 0.00 0.00 0.00 0.00 0.00 0.00 0.00 0.00 0.00 0.00 0.00 0.00 0.00 0.00 0.00 0.00 0.00 0.00 0.00 0.00 0.00 0.00
0.00 0.00 0.00 0.00 0.00 0.00 0.00 0.00 0.00 0.00 0.00 0.00 0.00 0.00 0.00 0.00 0.00 0.00 0.00 0.00 0.00 0.00 0.00 0.00 0.00 0.00 0.00 0.00 0.00 0.00 0.00 0.00 0.00 0.00 0.00 0.00 0.00 0.00 0.00 0.00 0.00 0.00 0.00
0.00 0.00 0.00 0.00 0.00 0.00 0.00 0.00 0.00 0.00 0.00 0.00 0.00 0.00 0.00 0.00 0.00 0.00 0.00 0.00 0.00 0.00 0.00 0.00 0.00 0.01 0.01 0.02 0.01 0.00 0.00 0.00 0.00 0.00 0.00 0.00 0.00 0.00 0.00 0.00 0.00 0.00 0.00
0.00 0.00 0.00 0.00 0.00 0.00 0.00 0.00 0.00 0.00 0.00 0.00 0.00 0.00 0.00 0.00 0.00 0.00 0.00 0.00 0.00 0.00 0.00 0.00 0.01 0.02 0.01 0.03 0.02 0.00 0.00 0.00 0.00 0.00 0.00 0.00 0.00 0.00 0.00 0.00 0.00 0.00 0.00
0.00 0.00 0.00 0.00 0.00 0.00 0.00 0.00 0.00 0.00 0.00 0.00 0.00 0.00 0.00 0.00 0.00 0.00 0.00 0.00 0.00 0.00 0.00 0.00 0.01 0.01 0.01 0.01 0.01 0.01 0.00 0.00 0.00 0.00 0.00 0.00 0.00 0.00 0.00 0.00 0.00 0.00 0.00
0.00 0.00 0.00 0.00 0.00 0.00 0.00 0.00 0.00 0.00 0.00 0.00 0.00 0.00 0.00 0.00 0.00 0.00 0.00 0.00 0.00 0.00 0.00 0.00 0.01 0.01 0.01 0.00 0.00 0.01 0.01 0.00 0.00 0.00 0.00 0.00 0.00 0.00 0.00 0.00 0.00 0.00 0.00
0.00 0.00 0.00 0.00 0.00 0.00 0.00 0.00 0.00 0.00 0.00 0.00 0.00 0.00 0.00 0.00 0.00 0.00 0.00 0.00 0.00 0.00 0.00 0.00 0.00 0.00 0.00 0.00 0.00 0.00 0.01 0.01 0.01 0.01 0.00 0.00 0.00 0.00 0.00 0.00 0.00 0.00 0.00
0.00 0.00 0.00 0.00 0.00 0.00 0.00 0.00 0.00 0.00 0.00 0.00 0.00 0.00 0.00 0.00 0.00 0.00 0.00 0.00 0.00 0.00 0.00 0.00 0.00 0.00 0.00 0.00 0.00 0.00 0.00 0.00 0.00 0.01 0.00 0.00 0.00 0.00 0.00 0.00 0.00 0.00 0.00
0.00 0.00 0.00 0.00 0.00 0.00 0.00 0.00 0.00 0.00 0.00 0.00 0.00 0.00 0.00 0.00 0.00 0.00 0.00 0.00 0.00 0.00 0.00 0.00 0.00 0.00 0.00 0.00 0.00 0.00 0.00 0.00 0.00 0.00 0.00 0.00 0.00 0.00 0.00 0.00 0.00 0.00 0.00
MSLP
1011.57 1012.90 1013.85 1014.33 1014.73 1014.97 1015.33 1015.68 1015.87 1016.19 1016.36 1016.49 1016.62 1016.78 1016.90 1016.92 1016.97 1017.04 1017.06 1017.06 1017.13 1017.26 1017.38 1017.50 1017.56 1017.76 1017.89 1018.02 1018.25 1018.31 1018.34 1018.37 1018.36 1018.32 1018.29 1018.31 1018.29 1018.25 1018.29 1018.21 1017.81 1018.00 1018.24
1011.33 1012.77 1013.88 1014.36 1014.78 1015.05 1015.45 1015.89 1016.12 1016.46 1016.69 1016.80 1016.90 1016.97 1017.05 1017.10 1017.22 1017.39 1017.44 1017.51 1017.56 1017.72 1017.85 1017.95 1017.94 1018.10 1018.26 1018.46 1018.63 1018.70 1018.66 1018.68 1018.61 1018.49 1018.61 1018.43 1018.45 1018.47 1018.58 1018.60 1018.55 1018.41 1018.42
1011.37 1012.68 1013.78 1014.44 1014.88 1015.20 1015.63 1016.06 1016.41 1016.75 1016.94 1017.06 1017.14 1017.22 1017.27 1017.36 1017.56 1017.75 1017.88 1017.91 1017.99 1018.12 1018.34 1018.39 1018.49 1018.60 1018.72 1018.96 1019.08 1019.07 1018.98 1018.88 1018.69 1018.33 1018.53 1018.25 1018.53 1018.70 1018.89 1018.88 1018.85 1018.53 1018.46
1011.38 1012.74 1013.40 1014.49 1014.88 1015.35 1015.79 1016.21 1016.60 1016.91 1017.10 1017.23 1017.36 1017.45 1017.50 1017.70 1017.87 1018.10 1018.27 1018.35 1018.44 1018.63 1018.80 1018.85 1018.98 1018.95 1019.14 1019.27 1019.37 1019.40 1019.22 1019.02 1018.85 1018.60 1018.03 1018.48 1018.72 1019.12 1019.11 1019.07 1019.03 1018.91 1018.92
1011.51 1012.51 1013.61 1014.63 1015.02 1015.45 1015.98 1016.36 1016.71 1017.03 1017.25 1017.39 1017.57 1017.70 1017.78 1017.99 1018.24 1018.57 1018.69 1018.83 1018.97 1019.16 1019.24 1019.28 1019.34 1019.40 1019.50 1019.55 1019.65 1019.72 1019.48 1019.17 1018.85 1018.36 1019.00 1019.28 1019.21 1019.57 1019.57 1019.59 1019.51 1019.40 1019.32
1011.79 1012.42 1014.41 1014.98 1015.33 1015.73 1016.19 1016.60 1016.92 1017.16 1017.45 1017.60 1017.75 1017.95 1018.00 1018.21 1018.63 1018.98 1019.09 1019.22 1019.39 1019.45 1019.54 1019.60 1019.66 1019.78 1019.82 1019.84 1019.98 1020.02 1019.84 1019.52 1019.30 1018.75 1018.91 1019.41 1019.70 1020.00 1019.93 1019.97 1019.93 1019.86 1019.70
1011.93 1012.96 1014.47 1015.20 1015.65 1016.11 1016.48 1016.81 1017.18 1017.45 1017.61 1017.78 1017.91 1018.13 1018.24 1018.42 1018.86 1019.23 1019.41 1019.49 1019.60 1019.70 1019.77 1019.88 1019.97 1020.03 1020.09 1020.09 1020.17 1020.19 1020.10 1019.75 1019.13 1019.23 1019.29 1019.61 1020.24 1020.26 1020.26 1020.28 1020.25 1020.19 1020.10
1012.10 1013.40 1014.68 1015.50 1015.92 1016.41 1016.79 1017.10 1017.38 1017.66 1017.76 1017.92 1017.84 1018.26 1018.47 1018.71 1019.03 1019.33 1019.64 1019.74 1019.78 1019.84 1019.94 1020.08 1020.17 1020.22 1020.27 1020.33 1020.40 1020.45 1020.41 1020.14 1019.30 1019.47 1019.55 1020.02 1020.46 1020.46 1020.45 1020.49 1020.49 1020.40 1020.32
1012.44 1013.40 1014.51 1015.41 1016.13 1016.66 1017.08 1017.37 1017.58 1017.81 1018.00 1018.10 1018.12 1018.43 1018.65 1018.99 1019.17 1019.56 1019.81 1019.89 1019.94 1020.05 1020.16 1020.30 1020.39 1020.43 1020.47 1020.56 1020.61 1020.65 1020.63 1020.36 1019.72 1019.68 1019.54 1019.87 1020.57 1020.59 1020.64 1020.71 1020.70 1020.66 1020.65
1013.25 1013.82 1014.53 1015.12 1015.75 1016.37 1017.05 1017.63 1017.78 1018.02 1018.25 1018.42 1018.54 1018.80 1018.99 1019.13 1019.37 1019.71 1019.86 1019.98 1020.06 1020.19 1020.33 1020.44 1020.53 1020.58 1020.68 1020.72 1020.78 1020.77 1020.72 1020.46 1019.70 1019.71 1019.64 1020.30 1020.66 1020.60 1020.78 1020.85 1020.86 1020.85 1020.89
1014.01 1014.47 1014.63 1014.97 1015.55 1016.09 1016.48 1017.52 1018.01 1018.24 1018.45 1018.66 1018.79 1019.02 1018.99 1018.60 1019.16 1019.53 1020.02 1020.12 1020.22 1020.26 1020.41 1020.53 1020.62 1020.76 1020.80 1020.77 1020.77 1020.76 1020.72 1019.80 1019.46 1019.59 1019.63 1020.43 1020.66 1020.68 1020.80 1020.86 1020.93 1021.00 1021.01
1014.28 1014.68 1015.01 1015.23 1015.62 1016.07 1016.58 1017.27 1017.26 1017.73 1017.93 1018.05 1018.32 1018.66 1018.26 1018.20 1018.50 1018.98 1019.73 1020.24 1020.30 1020.36 1020.47 1020.55 1020.69 1020.81 1020.76 1019.86 1020.21 1020.55 1020.20 1019.53 1019.61 1019.62 1019.74 1020.38 1020.58 1020.63 1020.67 1020.80 1020.98 1020.98 1021.07
1014.21 1014.51 1015.15 1015.41 1015.57 1016.04 1016.40 1016.83 1016.67 1017.06 1017.01 1017.24 1017.53 1017.91 1017.88 1018.24 1018.78 1019.18 1019.21 1019.73 1019.77 1020.21 1019.93 1020.30 1020.43 1020.27 1019.66 1019.79 1019.74 1019.69 1019.69 1019.73 1019.52 1019.53 1019.79 1020.24 1020.53 1020.57 1020.47 1020.67 1020.88 1020.97 1021.04
1014.10 1014.55 1014.89 1014.75 1015.39 1015.88 1016.32 1016.77 1016.19 1016.51 1016.78 1017.01 1017.40 1017.71 1017.92 1018.20 1018.51 1018.49 1018.61 1018.84 1019.09 1019.17 1019.24 1019.32 1019.25 1019.34 1019.53 1019.70 1019.63 1019.60 1019.54 1019.64 1019.51 1019.39 1019.49 1019.97 1020.32 1020.43 1020.41 1020.40 1020.61 1020.74 1020.89
1014.49 1014.87 1015.29 1015.36 1015.50 1015.58 1016.13 1016.37 1016.64 1016.54 1016.77 1016.83 1017.28 1017.57 1017.73 1017.94 1018.18 1018.41 1018.52 1018.68 1018.85 1018.97 1019.07 1019.11 1019.27 1019.21 1019.23 1019.23 1019.25 1019.36 1019.34 1019.24 1019.22 1019.23 1019.35 1019.74 1019.99 1020.23 1020.28 1020.28 1020.24 1020.36 1020.55
1014.45 1014.53 1014.98 1015.14 1015.14 1015.46 1015.99 1016.27 1015.88 1016.04 1016.28 1016.64 1017.03 1017.48 1017.74 1017.82 1018.05 1018.30 1018.39 1018.59 1018.73 1018.92 1019.00 1019.03 1019.00 1018.99 1019.01 1018.94 1018.93 1018.97 1018.97 1018.92 1018.92 1018.98 1019.12 1019.24 1019.65 1019.84 1019.96 1020.02 1019.94 1019.92 1020.00
1013.99 1014.03 1014.33 1014.60 1014.89 1015.33 1015.89 1016.15 1015.73 1015.91 1016.11 1016.41 1016.84 1017.14 1017.60 1017.82 1017.97 1018.12 1018.24 1018.26 1018.46 1018.60 1018.73 1018.75 1018.86 1018.88 1018.94 1018.90 1018.90 1018.74 1018.65 1018.55 1018.53 1018.50 1018.61 1018.79 1019.03 1019.40 1019.48 1019.59 1019.56 1019.60 1019.65
1013.39 1013.84 1014.20 1014.45 1014.72 1015.04 1015.26 1015.77 1015.92 1015.87 1016.15 1016.29 1016.51 1016.79 1017.21 1017.54 1017.84 1017.97 1018.06 1018.15 1018.20 1018.25 1018.47 1018.56 1018.67 1018.73 1018.70 1018.65 1018.51 1018.30 1018.10 1018.12 1018.19 1018.22 1018.22 1018.29 1018.47 1018.65 1018.93 1019.00 1019.12 1019.24 1019.27
1013.16 1013.48 1014.12 1014.47 1014.73 1014.94 1015.17 1015.41 1015.91 1016.00 1016.00 1016.05 1016.27 1016.50 1016.81 1017.13 1017.44 1017.75 1017.80 1017.86 1017.95 1018.07 1018.12 1018.29 1018.38 1018.45 1018.47 1018.40 1018.37 1018.26 1018.11 1017.91 1017.71 1017.77 1017.83 1017.84 1017.93 1018.09 1018.32 1018.45 1018.74 1018.78 1018.94
1012.84 1013.27 1013.76 1014.23 1014.65 1014.95 1015.26 1015.45 1015.82 1016.05 1015.94 1015.97 1015.96 1016.12 1016.46 1016.70 1016.99 1017.30 1017.47 1017.60 1017.64 1017.88 1018.03 1018.10 1018.26 1018.40 1018.47 1018.45 1018.31 1018.10 1017.85 1017.75 1017.51 1017.61 1017.54 1017.51 1017.52 1017.68 1017.96 1018.25 1018.33 1018.43 1018.54
1012.92 1013.17 1013.38 1013.92 1014.48 1014.75 1014.93 1015.31 1015.71 1015.93 1016.10 1015.96 1016.00 1016.12 1016.28 1016.52 1016.68 1016.98 1017.26 1017.38 1017.59 1017.94 1018.02 1018.03 1018.15 1018.18 1018.30 1018.36 1018.41 1018.23 1017.85 1017.48 1017.36 1017.33 1017.24 1017.35 1017.39 1017.71 1018.02 1018.06 1018.09 1018.07 1017.94
1012.69 1013.07 1013.36 1013.60 1014.09 1014.45 1014.72 1015.01 1015.27 1015.40 1015.40 1015.18 1015.56 1015.97 1016.16 1016.46 1016.81 1016.98 1017.14 1017.50 1017.68 1018.06 1018.11 1018.18 1018.29 1018.40 1018.40 1018.49 1018.56 1018.34 1017.82 1017.41 1016.78 1016.75 1017.10 1017.27 1017.53 1017.51 1017.70 1017.81 1017.91 1017.93 1017.94
1012.75 1013.14 1013.38 1013.70 1014.15 1014.38 1014.70 1014.96 1015.37 1015.75 1015.71 1015.83 1015.84 1016.03 1016.24 1016.64 1016.81 1017.19 1017.49 1017.84 1018.03 1018.25 1018.36 1018.43 1018.51 1018.63 1018.58 1018.50 1018.52 1018.69 1018.13 1017.48 1017.08 1017.06 1017.23 1017.41 1017.53 1017.58 1017.63 1018.12 1018.19 1018.15 1018.21
1012.72 1013.40 1013.69 1013.88 1014.22 1014.62 1015.07 1015.15 1015.55 1015.74 1015.70 1015.49 1015.79 1016.15 1016.81 1017.24 1017.38 1017.59 1017.62 1017.75 1017.86 1017.98 1018.24 1018.37 1018.45 1018.50 1018.52 1018.39 1018.40 1018.42 1018.24 1018.29 1018.19 1017.59 1017.20 1017.44 1017.65 1017.67 1017.86 1018.05 1018.24 1018.02 1018.26
1012.72 1013.37 1013.91 1014.04 1014.44 1014.73 1015.07 1015.23 1015.39 1015.61 1015.67 1016.03 1016.40 1016.68 1017.07 1017.39 1017.66 1017.86 1017.88 1017.99 1018.09 1017.99 1018.16 1018.27 1018.30 1018.34 1018.43 1018.49 1018.36 1018.21 1018.21 1018.29 1018.41 1018.64 1017.94 1017.64 1017.54 1017.72 1017.89 1017.75 1018.10 1018.17 1018.46
1012.70 1013.42 1013.93 1014.05 1014.31 1014.65 1015.02 1015.38 1015.57 1015.78 1016.05 1016.44 1016.63 1016.78 1016.94 1017.26 1017.69 1018.02 1018.22 1018.17 1018.28 1018.18 1018.19 1018.23 1018.28 1018.31 1018.41 1018.38 1018.36 1018.17 1018.07 1018.11 1018.14 1018.30 1018.12 1017.88 1018.07 1017.93 1017.70 1017.97 1018.21 1018.78 1019.26
Thickness
5778 5770 5765 5761 5758 5757 5754 5752 5751 5748 5747 5747 5746 5745 5744 5744 5744 5744 5743 5743 5741 5739 5737 5736 5736 5733 5731 5730 5727 5726 5725 5724 5723 5721 5720 5719 5717 5716 5715 5714 5715 5712 5708
5780 5770 5763 5760 5756 5755 5753 5750 5748 5746 5744 5744 5743 5743 5743 5742 5741 5740 5740 5738 5737 5734 5733 5732 5732 5730 5728 5726 5723 5722 5722 5721 5720 5720 5718 5717 5715 5714 5711 5710 5709 5708 5706
5777 5768 5762 5757 5754 5753 5750 5748 5745 5742 5742 5741 5741 5741 5740 5739 5738 5736 5735 5735 5733 5731 5729 5728 5727 5726 5724 5721 5719 5719 5719 5719 5719 5721 5718 5717 5714 5711 5708 5706 5704 5705 5703
5774 5765 5762 5755 5753 5750 5747 5745 5742 5740 5740 5739 5738 5737 5737 5735 5734 5732 5732 5731 5729 5727 5725 5724 5723 5723 5720 5718 5716 5715 5716 5717 5717 5718 5719 5714 5710 5707 5705 5703 5701 5701 5698
5771 5764 5757 5751 5750 5748 5744 5742 5740 5738 5737 5737 5736 5735 5734 5732 5730 5728 5727 5726 5724 5722 5721 5721 5720 5719 5717 5715 5712 5711 5713 5715 5716 5717 5711 5707 5705 5701 5700 5698 5697 5696 5694
5765 5762 5749 5746 5745 5743 5740 5738 5736 5735 5734 5734 5733 5732 5731 5730 5726 5724 5723 5721 5720 5719 5718 5717 5717 5715 5713 5711 5709 5708 5709 5711 5712 5712 5709 5704 5700 5696 5695 5693 5692 5691 5690
5761 5754 5744 5741 5740 5738 5736 5734 5732 5730 5731 5730 5730 5729 5728 5727 5723 5720 5719 5719 5717 5716 5715 5714 5713 5712 5710 5709 5707 5706 5706 5708 5709 5706 5705 5700 5695 5693 5691 5689 5688 5687 5685
5757 5749 5740 5737 5735 5733 5731 5730 5729 5727 5728 5727 5729 5726 5725 5723 5721 5718 5716 5715 5715 5715 5713 5711 5710 5709 5707 5706 5704 5703 5702 5703 5707 5703 5700 5696 5691 5690 5688 5686 5684 5683 5682
5751 5747 5740 5735 5731 5728 5727 5726 5726 5724 5724 5724 5725 5723 5722 5720 5718 5715 5713 5713 5713 5712 5710 5708 5707 5706 5704 5703 5702 5700 5699 5700 5702 5700 5699 5695 5688 5686 5684 5682 5680 5678 5676
5742 5740 5738 5735 5731 5727 5724 5722 5722 5721 5721 5721 5721 5719 5718 5718 5716 5713 5712 5710 5710 5709 5707 5706 5704 5702 5701 5700 5699 5698 5698 5698 5700 5698 5696 5690 5686 5684 5681 5679 5676 5674 5671
5731 5732 5733 5733 5730 5727 5725 5719 5718 5718 5717 5717 5717 5715 5716 5718 5714 5712 5709 5708 5707 5707 5705 5703 5701 5699 5698 5698 5697 5696 5696 5699 5700 5696 5693 5687 5683 5681 5678 5676 5673 5669 5667
5722 5725 5727 5727 5726 5725 5722 5718 5719 5717 5717 5717 5716 5715 5718 5718 5716 5713 5708 5705 5705 5704 5702 5701 5699 5697 5696 5700 5698 5696 5696 5698 5696 5694 5691 5685 5681 5678 5675 5672 5669 5666 5663
5720 5723 5721 5722 5723 5722 5720 5718 5721 5719 5722 5721 5719 5717 5718 5715 5712 5709 5709 5706 5706 5703 5704 5701 5698 5698 5701 5699 5699 5698 5696 5694 5694 5692 5688 5683 5678 5675 5673 5670 5666 5663 5660
5717 5718 5720 5723 5721 5719 5718 5715 5721 5720 5720 5720 5718 5715 5715 5713 5711 5712 5711 5710 5708 5707 5706 5704 5703 5702 5699 5697 5696 5695 5694 5692 5691 5689 5686 5681 5676 5672 5670 5667 5663 5660 5656
5708 5711 5711 5714 5715 5716 5715 5715 5715 5717 5717 5718 5716 5714 5713 5712 5711 5709 5709 5708 5707 5705 5704 5702 5700 5700 5698 5697 5696 5693 5692 5691 5689 5686 5683 5679 5674 5670 5667 5664 5661 5657 5653
5705 5708 5708 5710 5713 5713 5711 5711 5717 5717 5717 5716 5714 5711 5709 5709 5708 5706 5705 5704 5704 5702 5700 5699 5698 5697 5696 5695 5694 5692 5691 5689 5687 5684 5680 5677 5672 5668 5664 5661 5658 5655 5652
5702 5708 5709 5710 5710 5710 5707 5706 5713 5714 5714 5713 5710 5709 5705 5704 5704 5703 5702 5703 5701 5700 5698 5697 5695 5694 5693 5691 5690 5689 5688 5687 5685 5682 5679 5674 5670 5666 5663 5659 5656 5652 5649
5702 5702 5704 5706 5707 5708 5708 5704 5705 5709 5708 5709 5708 5706 5703 5701 5700 5700 5699 5698 5697 5697 5695 5693 5692 5691 5690 5689 5688 5688 5688 5685 5682 5679 5675 5672 5668 5664 5661 5658 5653 5649 5645
5698 5699 5697 5699 5700 5702 5703 5702 5700 5701 5703 5704 5703 5702 5701 5700 5698 5696 5695 5695 5694 5693 5692 5691 5689 5688 5686 5685 5683 5683 5682 5682 5680 5677 5673 5669 5665 5661 5656 5654 5650 5646 5641
5695 5696 5695 5695 5695 5696 5696 5696 5695 5695 5698 5699 5701 5701 5699 5698 5697 5694 5692 5691 5690 5690 5688 5687 5685 5683 5681 5679 5678 5678 5679 5677 5675 5672 5668 5664 5661 5657 5652 5648 5644 5640 5637
5686 5688 5691 5690 5689 5691 5692 5690 5688 5687 5690 5694 5695 5695 5695 5694 5693 5691 5689 5687 5685 5683 5683 5683 5680 5678 5676 5675 5670 5669 5670 5673 5671 5667 5663 5659 5655 5649 5644 5641 5637 5635 5634
5679 5681 5683 5685 5686 5687 5688 5688 5688 5689 5690 5693 5692 5690 5689 5688 5685 5685 5683 5682 5678 5676 5675 5674 5672 5669 5668 5666 5659 5658 5655 5661 5665 5665 5659 5653 5647 5643 5638 5634 5631 5628 5625
5669 5672 5674 5676 5678 5680 5681 5682 5680 5678 5680 5679 5682 5683 5681 5677 5677 5675 5674 5671 5669 5667 5666 5664 5662 5659 5657 5658 5655 5648 5645 5646 5651 5653 5649 5644 5639 5634 5630 5624 5620 5617 5614
5661 5662 5663 5667 5668 5669 5670 5672 5668 5667 5668 5674 5674 5673 5668 5665 5664 5664 5664 5663 5662 5661 5659 5657 5655 5653 5651 5649 5648 5645 5643 5637 5632 5634 5640 5636 5631 5625 5620 5615 5611 5609 5605
5654 5653 5654 5658 5658 5659 5660 5660 5660 5660 5662 5661 5660 5658 5657 5655 5654 5653 5653 5652 5651 5651 5650 5648 5647 5646 5643 5640 5639 5637 5635 5632 5626 5618 5622 5624 5624 5618 5612 5610 5602 5598 5594
5648 5646 5645 5648 5649 5651 5650 5650 5650 5650 5649 5647 5647 5646 5647 5647 5644 5642 5640 5641 5639 5640 5639 5638 5637 5637 5635 5633 5631 5630 5629 5624 5620 5614 5613 5614 5608 5606 5605 5598 5592 5585 5579